When you browse on this site, cookies collect data to enhance your experience and personalize the content and advertising you see.
Visit our Privacy Policy to learn more. By continuing to use the site, you agree to this use of cookies and data.
  • In France
  • List of Countries
  • For 7 days
  • Water Temperature
  • Satellite Maps
  • Weather Map
  • Weather Widgets
  • user-avatar
    Login

    Hourly Weather Kandahar

    Today, 23 March, Saturday

    Time Temperature Precipitation Wind Pressure Humidity
    00:00 +17°C° 0.2 mm 5 mps 676 mmHg 57%
    01:00 +17°C° 0.2 mm 5 mps 676 mmHg 61%
    02:00 +17°C° 0.7 mm 4 mps 675 mmHg 65%
    03:00 +16°C° 0.7 mm 3 mps 675 mmHg 69%
    04:00 +16°C° 0.7 mm 2 mps 675 mmHg 73%
    05:00 +16°C° 0.5 mm 2 mps 675 mmHg 73%
    06:00 +16°C° 0.5 mm 2 mps 676 mmHg 73%
    07:00 +16°C° 0.5 mm 1 mps 676 mmHg 73%
    08:00 +18°C° 0.3 mm 1 mps 676 mmHg 66%
    09:00 +19°C° 0.3 mm 1 mps 676 mmHg 59%
    10:00 +19°C° 0.3 mm 2 mps 677 mmHg 53%
    11:00 +21°C° 0.1 mm 1 mps 677 mmHg 47%
    12:00 +22°C° 0.1 mm 1 mps 676 mmHg 41%
    13:00 +23°C° 0.1 mm 1 mps 676 mmHg 35%
    14:00 +23°C° 0 mm 1 mps 676 mmHg 34%
    15:00 +24°C° 0 mm 2 mps 676 mmHg 32%
    16:00 +24°C° 0 mm 2 mps 676 mmHg 31%
    17:00 +24°C° 0 mm 2 mps 676 mmHg 34%
    18:00 +23°C° 0 mm 1 mps 676 mmHg 36%
    19:00 +23°C° 0 mm 1 mps 676 mmHg 39%
    20:00 +22°C° 0 mm 1 mps 676 mmHg 41%
    21:00 +21°C° 0 mm 2 mps 676 mmHg 43%
    22:00 +20°C° 0 mm 2 mps 676 mmHg 44%
    23:00 +19°C° 0 mm 2 mps 676 mmHg 48%

    Tomorrow, 24 March, Sunday

    Time Temperature Precipitation Wind Pressure Humidity
    00:00 +19°C° 0 mm 2 mps 675 mmHg 53%
    01:00 +18°C° 0 mm 2 mps 675 mmHg 57%
    02:00 +17°C° 0.1 mm 2 mps 675 mmHg 60%
    03:00 +17°C° 0.1 mm 2 mps 675 mmHg 64%
    04:00 +16°C° 0.1 mm 2 mps 674 mmHg 67%
    05:00 +16°C° 0.1 mm 2 mps 675 mmHg 66%
    06:00 +16°C° 0.1 mm 2 mps 675 mmHg 65%
    07:00 +17°C° 0.1 mm 2 mps 675 mmHg 64%
    08:00 +18°C° 0 mm 2 mps 676 mmHg 58%
    09:00 +19°C° 0 mm 3 mps 676 mmHg 51%
    10:00 +21°C° 0 mm 3 mps 676 mmHg 44%
    11:00 +23°C° 0 mm 2 mps 676 mmHg 41%
    12:00 +23°C° 0 mm 2 mps 676 mmHg 37%
    13:00 +24°C° 0 mm 1 mps 675 mmHg 33%
    14:00 +24°C° 0 mm 1 mps 675 mmHg 33%
    15:00 +24°C° 0 mm 2 mps 674 mmHg 34%
    16:00 +24°C° 0 mm 2 mps 674 mmHg 34%
    17:00 +23°C° 0.1 mm 1 mps 674 mmHg 38%
    18:00 +23°C° 0.1 mm 1 mps 674 mmHg 42%
    19:00 +20°C° 0.1 mm 0 mps 674 mmHg 46%
    20:00 +22°C° 0.1 mm 1 mps 674 mmHg 48%
    21:00 +21°C° 0.1 mm 1 mps 674 mmHg 50%
    22:00 +20°C° 0.1 mm 1 mps 675 mmHg 52%
    23:00 +19°C° 0 mm 2 mps 674 mmHg 54%

    Day after tomorrow, 25 March, Monday

    Time Temperature Precipitation Wind Pressure Humidity
    00:00 +19°C° 0 mm 2 mps 674 mmHg 55%
    01:00 +18°C° 0 mm 2 mps 674 mmHg 56%
    02:00 +18°C° 0.1 mm 2 mps 674 mmHg 58%
    03:00 +17°C° 0.1 mm 2 mps 674 mmHg 61%
    04:00 +18°C° 0.1 mm 1 mps 674 mmHg 63%
    05:00 +17°C° 0 mm 2 mps 674 mmHg 61%
    06:00 +17°C° 0 mm 2 mps 675 mmHg 59%
    07:00 +18°C° 0 mm 2 mps 675 mmHg 57%
    08:00 +19°C° 0 mm 2 mps 676 mmHg 51%
    09:00 +20°C° 0 mm 2 mps 677 mmHg 46%
    10:00 +23°C° 0 mm 2 mps 677 mmHg 40%
    11:00 +24°C° 0 mm 1 mps 677 mmHg 37%
    12:00 +24°C° 0 mm 1 mps 677 mmHg 34%
    13:00 +25°C° 0 mm 1 mps 677 mmHg 30%
    14:00 +26°C° 0 mm 1 mps 676 mmHg 29%
    15:00 +26°C° 0 mm 1 mps 676 mmHg 27%
    16:00 +26°C° 0 mm 1 mps 675 mmHg 25%
    17:00 +26°C° 0 mm 1 mps 676 mmHg 28%
    18:00 +25°C° 0 mm 1 mps 676 mmHg 31%
    19:00 +24°C° 0 mm 1 mps 676 mmHg 34%
    20:00 +24°C° 0 mm 1 mps 677 mmHg 35%
    21:00 +23°C° 0 mm 1 mps 677 mmHg 35%
    22:00 +23°C° 0 mm 2 mps 677 mmHg 36%
    23:00 +22°C° 0 mm 1 mps 677 mmHg 38%

    26 March, Tuesday

    Time Temperature Precipitation Wind Pressure Humidity
    00:00 +21°C° 0 mm 1 mps 676 mmHg 40%
    01:00 +21°C° 0 mm 1 mps 676 mmHg 42%
    02:00 +21°C° 0 mm 1 mps 676 mmHg 42%
    03:00 +20°C° 0 mm 2 mps 676 mmHg 41%
    04:00 +19°C° 0 mm 2 mps 676 mmHg 41%
    05:00 +20°C° 0 mm 2 mps 676 mmHg 40%
    06:00 +20°C° 0 mm 2 mps 677 mmHg 40%
    07:00 +20°C° 0 mm 2 mps 677 mmHg 39%
    08:00 +23°C° 0 mm 2 mps 678 mmHg 35%
    09:00 +24°C° 0 mm 2 mps 678 mmHg 31%
    10:00 +26°C° 0 mm 2 mps 679 mmHg 27%
    11:00 +27°C° 0 mm 2 mps 678 mmHg 26%
    12:00 +28°C° 0 mm 3 mps 678 mmHg 25%
    13:00 +29°C° 0 mm 3 mps 678 mmHg 23%
    14:00 +29°C° 0 mm 5 mps 678 mmHg 24%
    15:00 +29°C° 0 mm 6 mps 678 mmHg 24%
    16:00 +29°C° 0 mm 7 mps 678 mmHg 25%
    17:00 +28°C° 0 mm 5 mps 678 mmHg 29%
    18:00 +27°C° 0 mm 4 mps 678 mmHg 32%
    19:00 +26°C° 0 mm 2 mps 678 mmHg 36%
    20:00 +25°C° 0 mm 2 mps 678 mmHg 38%
    21:00 +25°C° 0 mm 2 mps 678 mmHg 39%
    22:00 +24°C° 0 mm 2 mps 678 mmHg 40%
    23:00 +24°C° 0 mm 2 mps 678 mmHg 41%

    27 March, Wednesday

    Time Temperature Precipitation Wind Pressure Humidity
    00:00 +24°C° 0 mm 2 mps 678 mmHg 43%
    01:00 +23°C° 0 mm 1 mps 677 mmHg 44%
    02:00 +23°C° 0 mm 2 mps 677 mmHg 43%
    03:00 +23°C° 0 mm 2 mps 677 mmHg 43%
    04:00 +23°C° 0 mm 2 mps 677 mmHg 42%
    05:00 +23°C° 0 mm 2 mps 677 mmHg 42%
    06:00 +23°C° 0 mm 2 mps 677 mmHg 42%
    07:00 +23°C° 0 mm 2 mps 678 mmHg 41%
    08:00 +24°C° 0 mm 2 mps 678 mmHg 37%
    09:00 +25°C° 0 mm 3 mps 678 mmHg 33%
    10:00 +26°C° 0 mm 3 mps 678 mmHg 28%
    11:00 +26°C° 0 mm 3 mps 678 mmHg 28%
    12:00 +26°C° 0 mm 4 mps 678 mmHg 29%
    13:00 +26°C° 0 mm 4 mps 678 mmHg 29%
    14:00 +24°C° 0.1 mm 6 mps 678 mmHg 32%
    15:00 +23°C° 0.1 mm 7 mps 678 mmHg 35%
    16:00 +22°C° 0.1 mm 8 mps 678 mmHg 39%
    17:00 +21°C° 0.6 mm 6 mps 678 mmHg 47%
    18:00 +20°C° 0.6 mm 4 mps 678 mmHg 54%
    19:00 +19°C° 0.6 mm 2 mps 679 mmHg 62%
    20:00 +19°C° 0 mm 2 mps 678 mmHg 62%
    21:00 +19°C° 0 mm 2 mps 678 mmHg 62%
    22:00 +19°C° 0 mm 2 mps 678 mmHg 61%
    23:00 +18°C° 0 mm 2 mps 678 mmHg 61%

    28 March, Thursday

    Time Temperature Precipitation Wind Pressure Humidity
    00:00 +18°C° 0 mm 2 mps 677 mmHg 61%
    01:00 +18°C° 0 mm 2 mps 677 mmHg 61%
    02:00 +18°C° 0 mm 2 mps 676 mmHg 60%
    03:00 +18°C° 0 mm 3 mps 676 mmHg 59%
    04:00 +18°C° 0 mm 3 mps 676 mmHg 59%
    05:00 +19°C° 0 mm 3 mps 676 mmHg 57%
    06:00 +19°C° 0 mm 2 mps 677 mmHg 55%
    07:00 +19°C° 0 mm 2 mps 677 mmHg 53%
    08:00 +21°C° 0 mm 2 mps 677 mmHg 47%
    09:00 +24°C° 0 mm 2 mps 677 mmHg 40%
    10:00 +26°C° 0 mm 2 mps 678 mmHg 33%
    11:00 +27°C° 0 mm 3 mps 677 mmHg 30%
    12:00 +28°C° 0 mm 4 mps 677 mmHg 28%
    13:00 +29°C° 0 mm 4 mps 677 mmHg 25%
    14:00 +29°C° 0 mm 5 mps 676 mmHg 24%
    15:00 +29°C° 0 mm 6 mps 676 mmHg 22%
    16:00 +29°C° 0 mm 6 mps 676 mmHg 21%
    17:00 +28°C° 0 mm 6 mps 676 mmHg 23%
    18:00 +27°C° 0 mm 5 mps 676 mmHg 25%
    19:00 +26°C° 0 mm 4 mps 676 mmHg 26%
    20:00 +25°C° 0 mm 3 mps 676 mmHg 28%
    21:00 +24°C° 0 mm 3 mps 676 mmHg 31%
    22:00 +22°C° 0 mm 3 mps 676 mmHg 33%
    23:00 +21°C° 0 mm 2 mps 676 mmHg 36%
    Show more